QPF
0.00 0.00 0.00 0.00 0.00 0.00 0.00 0.00 0.00 0.00 0.00 0.00 0.00 0.00 0.00 0.00 0.01 0.01 0.01 0.00 0.00 0.02 0.01 0.02 0.00 0.00 0.00 0.01 0.01 0.02 0.03 0.02 0.02 0.02 0.01 0.01 0.01 0.02 0.02 0.01 0.01 0.01 0.01 0.01
0.00 0.00 0.00 0.00 0.00 0.00 0.00 0.00 0.00 0.00 0.00 0.00 0.00 0.00 0.00 0.01 0.01 0.01 0.01 0.00 0.00 0.01 0.01 0.01 0.01 0.01 0.01 0.01 0.02 0.03 0.04 0.03 0.02 0.01 0.01 0.01 0.01 0.01 0.01 0.01 0.01 0.01 0.01 0.01
0.00 0.00 0.00 0.00 0.00 0.00 0.00 0.00 0.00 0.00 0.00 0.00 0.00 0.00 0.00 0.00 0.01 0.01 0.00 0.00 0.00 0.00 0.00 0.01 0.01 0.01 0.01 0.01 0.02 0.03 0.04 0.04 0.02 0.02 0.01 0.01 0.01 0.01 0.01 0.01 0.01 0.01 0.01 0.01
0.00 0.00 0.00 0.00 0.00 0.00 0.00 0.00 0.00 0.00 0.00 0.01 0.00 0.00 0.01 0.01 0.00 0.00 0.00 0.00 0.00 0.00 0.00 0.00 0.00 0.00 0.00 0.01 0.02 0.02 0.03 0.04 0.03 0.02 0.01 0.01 0.01 0.01 0.02 0.03 0.03 0.03 0.02 0.01
0.00 0.00 0.00 0.00 0.00 0.00 0.00 0.01 0.01 0.01 0.01 0.01 0.00 0.00 0.00 0.00 0.00 0.00 0.00 0.00 0.00 0.00 0.00 0.00 0.00 0.00 0.00 0.01 0.02 0.01 0.01 0.02 0.04 0.03 0.02 0.01 0.03 0.05 0.06 0.07 0.05 0.05 0.03 0.01
0.00 0.00 0.00 0.00 0.00 0.00 0.00 0.01 0.01 0.01 0.01 0.01 0.01 0.00 0.00 0.00 0.00 0.00 0.00 0.00 0.00 0.00 0.00 0.00 0.02 0.02 0.01 0.01 0.02 0.02 0.02 0.02 0.02 0.02 0.03 0.06 0.10 0.07 0.06 0.07 0.06 0.04 0.03 0.02
0.00 0.00 0.00 0.00 0.00 0.00 0.00 0.01 0.01 0.01 0.01 0.01 0.01 0.00 0.00 0.00 0.00 0.00 0.00 0.00 0.00 0.00 0.00 0.00 0.00 0.01 0.01 0.01 0.01 0.04 0.03 0.03 0.01 0.01 0.03 0.08 0.06 0.03 0.03 0.06 0.05 0.04 0.03 0.01
0.00 0.00 0.00 0.00 0.00 0.00 0.00 0.00 0.00 0.00 0.00 0.01 0.01 0.01 0.01 0.01 0.00 0.00 0.00 0.00 0.00 0.00 0.00 0.00 0.00 0.00 0.01 0.01 0.01 0.02 0.03 0.02 0.01 0.01 0.01 0.03 0.02 0.02 0.03 0.06 0.05 0.04 0.02 0.01
0.00 0.00 0.00 0.00 0.00 0.00 0.00 0.00 0.00 0.00 0.00 0.00 0.01 0.01 0.01 0.01 0.02 0.01 0.00 0.00 0.00 0.00 0.00 0.00 0.00 0.00 0.01 0.01 0.01 0.02 0.02 0.02 0.02 0.01 0.01 0.01 0.02 0.02 0.02 0.05 0.06 0.04 0.03 0.02
0.00 0.00 0.00 0.00 0.00 0.00 0.00 0.00 0.00 0.00 0.00 0.00 0.00 0.00 0.00 0.01 0.01 0.01 0.01 0.01 0.00 0.00 0.00 0.00 0.00 0.00 0.01 0.02 0.02 0.02 0.02 0.01 0.01 0.02 0.02 0.02 0.01 0.02 0.02 0.04 0.04 0.04 0.03 0.03
0.00 0.00 0.00 0.00 0.00 0.00 0.00 0.00 0.00 0.00 0.00 0.00 0.00 0.00 0.01 0.01 0.01 0.01 0.01 0.01 0.01 0.00 0.00 0.00 0.00 0.00 0.01 0.02 0.03 0.02 0.01 0.01 0.01 0.01 0.03 0.04 0.03 0.04 0.07 0.08 0.05 0.05 0.05 0.06
0.00 0.00 0.00 0.00 0.00 0.00 0.00 0.00 0.00 0.00 0.00 0.00 0.00 0.00 0.01 0.00 0.01 0.01 0.02 0.01 0.01 0.01 0.01 0.00 0.00 0.00 0.01 0.02 0.03 0.03 0.02 0.02 0.02 0.03 0.04 0.05 0.05 0.07 0.10 0.11 0.09 0.07 0.07 0.08
0.00 0.00 0.00 0.00 0.00 0.00 0.00 0.00 0.00 0.00 0.00 0.00 0.00 0.00 0.00 0.01 0.01 0.00 0.01 0.01 0.01 0.00 0.00 0.00 0.00 0.01 0.01 0.02 0.03 0.05 0.05 0.04 0.03 0.03 0.05 0.07 0.07 0.07 0.07 0.07 0.09 0.09 0.07 0.07
0.00 0.00 0.00 0.00 0.00 0.00 0.00 0.00 0.00 0.00 0.00 0.00 0.00 0.00 0.00 0.00 0.00 0.00 0.00 0.00 0.01 0.01 0.00 0.00 0.01 0.01 0.01 0.02 0.03 0.04 0.06 0.07 0.06 0.05 0.05 0.06 0.07 0.05 0.05 0.05 0.06 0.06 0.06 0.05
0.00 0.00 0.00 0.00 0.00 0.00 0.00 0.00 0.00 0.00 0.00 0.00 0.00 0.00 0.00 0.00 0.00 0.00 0.00 0.01 0.01 0.01 0.01 0.01 0.01 0.01 0.01 0.02 0.03 0.03 0.05 0.07 0.07 0.06 0.05 0.04 0.04 0.04 0.04 0.05 0.07 0.07 0.06 0.06
0.00 0.00 0.00 0.00 0.00 0.00 0.00 0.00 0.00 0.00 0.00 0.00 0.00 0.00 0.00 0.01 0.01 0.01 0.01 0.00 0.01 0.01 0.01 0.01 0.01 0.02 0.02 0.02 0.03 0.03 0.05 0.07 0.09 0.08 0.07 0.06 0.05 0.06 0.05 0.06 0.06 0.06 0.06 0.06
0.00 0.00 0.00 0.00 0.00 0.00 0.00 0.00 0.00 0.00 0.00 0.00 0.00 0.00 0.00 0.01 0.01 0.01 0.01 0.01 0.01 0.01 0.01 0.01 0.02 0.03 0.03 0.03 0.03 0.04 0.05 0.06 0.08 0.08 0.08 0.07 0.05 0.05 0.05 0.05 0.05 0.06 0.06 0.04
0.00 0.00 0.00 0.00 0.00 0.00 0.00 0.00 0.00 0.00 0.00 0.00 0.00 0.00 0.01 0.01 0.01 0.01 0.01 0.01 0.01 0.01 0.01 0.02 0.02 0.04 0.04 0.02 0.02 0.02 0.03 0.03 0.05 0.06 0.06 0.06 0.06 0.04 0.03 0.03 0.03 0.03 0.03 0.02
0.00 0.00 0.00 0.00 0.00 0.00 0.00 0.00 0.00 0.00 0.00 0.00 0.00 0.00 0.01 0.01 0.01 0.01 0.01 0.01 0.01 0.01 0.02 0.02 0.02 0.02 0.02 0.02 0.01 0.01 0.01 0.02 0.03 0.03 0.04 0.04 0.04 0.03 0.03 0.02 0.02 0.02 0.01 0.01
0.00 0.00 0.00 0.00 0.00 0.00 0.00 0.00 0.00 0.00 0.00 0.00 0.00 0.00 0.00 0.01 0.01 0.01 0.01 0.01 0.01 0.02 0.02 0.02 0.01 0.02 0.02 0.01 0.01 0.01 0.00 0.01 0.01 0.02 0.02 0.02 0.02 0.02 0.02 0.02 0.02 0.02 0.01 0.01
0.00 0.00 0.00 0.00 0.00 0.00 0.00 0.00 0.00 0.00 0.00 0.00 0.00 0.00 0.00 0.00 0.00 0.01 0.01 0.02 0.01 0.01 0.01 0.01 0.01 0.01 0.01 0.01 0.01 0.01 0.00 0.00 0.01 0.01 0.02 0.02 0.02 0.02 0.02 0.02 0.02 0.02 0.02 0.02
0.00 0.00 0.00 0.00 0.00 0.00 0.00 0.00 0.00 0.00 0.00 0.00 0.00 0.00 0.01 0.01 0.01 0.01 0.01 0.01 0.01 0.01 0.01 0.01 0.01 0.01 0.01 0.01 0.01 0.01 0.00 0.00 0.00 0.01 0.01 0.02 0.01 0.01 0.02 0.02 0.02 0.02 0.02 0.03
0.00 0.00 0.00 0.00 0.00 0.00 0.00 0.00 0.00 0.00 0.00 0.00 0.00 0.00 0.01 0.01 0.02 0.02 0.02 0.01 0.01 0.01 0.01 0.01 0.02 0.01 0.01 0.01 0.01 0.01 0.01 0.01 0.01 0.01 0.01 0.01 0.02 0.01 0.01 0.02 0.02 0.02 0.02 0.02
0.00 0.00 0.01 0.01 0.01 0.01 0.00 0.00 0.00 0.00 0.00 0.01 0.01 0.01 0.02 0.02 0.02 0.02 0.02 0.01 0.01 0.01 0.01 0.01 0.01 0.01 0.00 0.01 0.00 0.00 0.01 0.01 0.01 0.01 0.02 0.02 0.02 0.02 0.02 0.02 0.02 0.02 0.01 0.01
0.00 0.00 0.01 0.01 0.02 0.01 0.01 0.01 0.01 0.01 0.01 0.01 0.02 0.02 0.03 0.02 0.02 0.01 0.01 0.01 0.01 0.01 0.01 0.01 0.01 0.01 0.00 0.00 0.00 0.00 0.00 0.01 0.01 0.01 0.01 0.02 0.01 0.02 0.02 0.01 0.02 0.02 0.02 0.02
0.00 0.00 0.01 0.01 0.01 0.01 0.02 0.02 0.01 0.01 0.02 0.02 0.02 0.02 0.02 0.02 0.02 0.01 0.01 0.02 0.01 0.01 0.01 0.01 0.01 0.00 0.00 0.00 0.00 0.00 0.00 0.00 0.01 0.01 0.01 0.01 0.01 0.01 0.01 0.01 0.01 0.02 0.02 0.02
MSLP
1008.62 1009.41 1010.07 1010.61 1011.08 1011.52 1011.98 1012.48 1013.00 1013.50 1013.93 1014.24 1014.39 1014.37 1014.22 1013.97 1013.71 1013.50 1013.37 1013.34 1013.40 1013.49 1013.56 1013.55 1013.45 1013.24 1012.95 1012.65 1012.38 1012.21 1012.17 1012.26 1012.48 1012.76 1013.07 1013.34 1013.54 1013.66 1013.72 1013.73 1013.75 1013.81 1013.93 1014.14
1009.32 1009.91 1010.36 1010.69 1011.00 1011.33 1011.76 1012.29 1012.90 1013.53 1014.09 1014.50 1014.72 1014.71 1014.51 1014.19 1013.84 1013.55 1013.37 1013.33 1013.42 1013.58 1013.75 1013.85 1013.84 1013.69 1013.44 1013.13 1012.83 1012.62 1012.53 1012.60 1012.80 1013.10 1013.43 1013.74 1013.97 1014.12 1014.17 1014.16 1014.15 1014.16 1014.25 1014.42
1009.84 1010.21 1010.44 1010.58 1010.75 1011.02 1011.46 1012.07 1012.81 1013.57 1014.26 1014.76 1015.00 1014.98 1014.71 1014.28 1013.80 1013.40 1013.15 1013.08 1013.20 1013.44 1013.72 1013.95 1014.06 1014.02 1013.84 1013.57 1013.28 1013.05 1012.94 1012.98 1013.18 1013.47 1013.82 1014.14 1014.39 1014.54 1014.58 1014.54 1014.48 1014.44 1014.47 1014.59
1010.18 1010.33 1010.36 1010.36 1010.45 1010.72 1011.22 1011.95 1012.83 1013.73 1014.53 1015.09 1015.33 1015.23 1014.84 1014.25 1013.62 1013.07 1012.71 1012.60 1012.74 1013.05 1013.45 1013.82 1014.08 1014.17 1014.10 1013.91 1013.66 1013.44 1013.33 1013.37 1013.55 1013.85 1014.20 1014.53 1014.79 1014.93 1014.96 1014.89 1014.78 1014.69 1014.65 1014.72
1010.38 1010.34 1010.21 1010.12 1010.20 1010.52 1011.13 1012.01 1013.04 1014.08 1014.96 1015.53 1015.72 1015.51 1014.95 1014.17 1013.34 1012.62 1012.13 1011.96 1012.08 1012.45 1012.96 1013.47 1013.89 1014.13 1014.19 1014.10 1013.92 1013.74 1013.65 1013.69 1013.88 1014.18 1014.54 1014.88 1015.15 1015.30 1015.32 1015.23 1015.08 1014.94 1014.85 1014.86
1010.50 1010.30 1010.08 1009.96 1010.07 1010.49 1011.24 1012.27 1013.44 1014.59 1015.51 1016.07 1016.17 1015.81 1015.06 1014.06 1013.02 1012.11 1011.49 1011.23 1011.33 1011.74 1012.34 1012.98 1013.54 1013.93 1014.12 1014.14 1014.04 1013.92 1013.86 1013.92 1014.12 1014.43 1014.79 1015.15 1015.44 1015.60 1015.62 1015.53 1015.37 1015.20 1015.07 1015.04
1010.62 1010.31 1010.03 1009.92 1010.10 1010.63 1011.52 1012.69 1013.98 1015.18 1016.11 1016.62 1016.60 1016.08 1015.14 1013.94 1012.70 1011.62 1010.87 1010.53 1010.60 1011.04 1011.70 1012.44 1013.11 1013.62 1013.93 1014.05 1014.03 1013.97 1013.94 1014.02 1014.23 1014.55 1014.93 1015.30 1015.61 1015.80 1015.84 1015.77 1015.62 1015.44 1015.30 1015.23
1010.79 1010.40 1010.11 1010.03 1010.28 1010.92 1011.92 1013.17 1014.51 1015.73 1016.62 1017.04 1016.91 1016.24 1015.13 1013.77 1012.39 1011.19 1010.34 1009.93 1009.98 1010.42 1011.12 1011.92 1012.67 1013.27 1013.67 1013.86 1013.91 1013.89 1013.90 1013.99 1014.21 1014.53 1014.92 1015.31 1015.64 1015.86 1015.94 1015.90 1015.77 1015.61 1015.47 1015.39
1011.03 1010.61 1010.32 1010.28 1010.59 1011.28 1012.32 1013.59 1014.91 1016.08 1016.89 1017.21 1016.97 1016.19 1014.98 1013.53 1012.07 1010.81 1009.92 1009.48 1009.52 1009.95 1010.65 1011.48 1012.27 1012.91 1013.35 1013.60 1013.69 1013.71 1013.73 1013.84 1014.06 1014.38 1014.77 1015.17 1015.51 1015.76 1015.88 1015.88 1015.79 1015.66 1015.54 1015.47
1011.35 1010.93 1010.64 1010.62 1010.94 1011.63 1012.63 1013.83 1015.06 1016.11 1016.81 1017.02 1016.69 1015.85 1014.61 1013.16 1011.71 1010.47 1009.59 1009.16 1009.19 1009.61 1010.30 1011.11 1011.89 1012.54 1013.00 1013.26 1013.38 1013.42 1013.47 1013.58 1013.80 1014.11 1014.49 1014.88 1015.24 1015.50 1015.65 1015.68 1015.63 1015.54 1015.45 1015.40
1011.71 1011.31 1011.04 1011.01 1011.28 1011.89 1012.77 1013.83 1014.88 1015.76 1016.31 1016.41 1016.02 1015.17 1013.98 1012.60 1011.25 1010.10 1009.30 1008.92 1008.95 1009.35 1010.00 1010.76 1011.50 1012.11 1012.56 1012.83 1012.97 1013.04 1013.10 1013.23 1013.44 1013.75 1014.11 1014.49 1014.83 1015.09 1015.26 1015.32 1015.30 1015.25 1015.19 1015.17
1012.08 1011.71 1011.44 1011.38 1011.58 1012.04 1012.74 1013.57 1014.40 1015.07 1015.44 1015.44 1015.01 1014.20 1013.11 1011.88 1010.68 1009.68 1008.98 1008.66 1008.71 1009.07 1009.66 1010.34 1011.00 1011.57 1011.99 1012.26 1012.42 1012.52 1012.63 1012.78 1013.00 1013.31 1013.66 1014.01 1014.33 1014.58 1014.74 1014.82 1014.83 1014.81 1014.79 1014.80
1012.41 1012.09 1011.84 1011.72 1011.80 1012.09 1012.56 1013.13 1013.69 1014.12 1014.32 1014.21 1013.77 1013.03 1012.08 1011.02 1010.01 1009.16 1008.59 1008.32 1008.37 1008.69 1009.18 1009.77 1010.34 1010.84 1011.24 1011.52 1011.71 1011.87 1012.03 1012.23 1012.49 1012.80 1013.14 1013.48 1013.78 1014.01 1014.16 1014.24 1014.27 1014.27 1014.28 1014.32
1012.71 1012.45 1012.20 1012.03 1011.99 1012.08 1012.31 1012.60 1012.89 1013.08 1013.10 1012.90 1012.45 1011.79 1010.98 1010.10 1009.27 1008.58 1008.11 1007.88 1007.91 1008.14 1008.53 1009.00 1009.47 1009.91 1010.27 1010.57 1010.83 1011.06 1011.30 1011.58 1011.89 1012.24 1012.58 1012.91 1013.19 1013.40 1013.53 1013.61 1013.66 1013.69 1013.73 1013.80
1012.98 1012.77 1012.54 1012.32 1012.16 1012.08 1012.07 1012.10 1012.14 1012.11 1011.97 1011.68 1011.23 1010.64 1009.94 1009.22 1008.54 1007.97 1007.56 1007.34 1007.31 1007.44 1007.70 1008.04 1008.40 1008.77 1009.12 1009.45 1009.77 1010.10 1010.45 1010.82 1011.21 1011.60 1011.97 1012.30 1012.57 1012.77 1012.90 1012.98 1013.04 1013.09 1013.16 1013.26
1013.25 1013.09 1012.87 1012.62 1012.36 1012.12 1011.92 1011.74 1011.55 1011.33 1011.05 1010.69 1010.23 1009.69 1009.09 1008.48 1007.91 1007.40 1007.01 1006.76 1006.64 1006.64 1006.76 1006.95 1007.20 1007.50 1007.83 1008.20 1008.59 1009.02 1009.48 1009.95 1010.43 1010.88 1011.30 1011.64 1011.92 1012.12 1012.25 1012.34 1012.42 1012.50 1012.60 1012.73
1013.55 1013.43 1013.22 1012.94 1012.61 1012.26 1011.90 1011.55 1011.20 1010.84 1010.45 1010.02 1009.56 1009.05 1008.51 1007.96 1007.44 1006.95 1006.54 1006.21 1005.97 1005.83 1005.79 1005.84 1005.98 1006.20 1006.51 1006.89 1007.35 1007.86 1008.42 1008.99 1009.56 1010.08 1010.54 1010.92 1011.21 1011.43 1011.58 1011.70 1011.80 1011.91 1012.04 1012.20
1013.91 1013.80 1013.58 1013.27 1012.89 1012.47 1012.01 1011.55 1011.09 1010.63 1010.17 1009.70 1009.22 1008.73 1008.22 1007.70 1007.18 1006.68 1006.20 1005.77 1005.40 1005.11 1004.91 1004.82 1004.84 1004.98 1005.25 1005.63 1006.12 1006.69 1007.32 1007.96 1008.59 1009.17 1009.67 1010.09 1010.42 1010.67 1010.86 1011.01 1011.15 1011.30 1011.46 1011.64
1014.29 1014.16 1013.92 1013.59 1013.18 1012.70 1012.20 1011.68 1011.16 1010.64 1010.15 1009.66 1009.18 1008.69 1008.19 1007.67 1007.13 1006.59 1006.04 1005.51 1005.01 1004.58 1004.23 1004.00 1003.90 1003.94 1004.15 1004.49 1004.97 1005.55 1006.20 1006.87 1007.54 1008.15 1008.69 1009.15 1009.52 1009.82 1010.06 1010.26 1010.45 1010.63 1010.83 1011.03
1014.66 1014.48 1014.20 1013.83 1013.39 1012.89 1012.37 1011.83 1011.29 1010.77 1010.27 1009.78 1009.31 1008.83 1008.33 1007.80 1007.25 1006.66 1006.04 1005.43 1004.82 1004.27 1003.79 1003.43 1003.21 1003.15 1003.26 1003.53 1003.95 1004.48 1005.10 1005.76 1006.41 1007.04 1007.60 1008.09 1008.50 1008.85 1009.15 1009.41 1009.66 1009.89 1010.12 1010.35
1014.93 1014.67 1014.33 1013.93 1013.46 1012.96 1012.43 1011.91 1011.39 1010.89 1010.41 1009.95 1009.49 1009.03 1008.54 1008.02 1007.45 1006.83 1006.18 1005.50 1004.82 1004.17 1003.59 1003.12 1002.79 1002.61 1002.60 1002.76 1003.07 1003.51 1004.05 1004.64 1005.25 1005.84 1006.40 1006.91 1007.37 1007.77 1008.14 1008.47 1008.78 1009.07 1009.34 1009.60
1015.02 1014.67 1014.26 1013.81 1013.32 1012.82 1012.32 1011.83 1011.35 1010.89 1010.46 1010.04 1009.62 1009.18 1008.72 1008.21 1007.65 1007.04 1006.37 1005.67 1004.95 1004.25 1003.60 1003.04 1002.60 1002.31 1002.16 1002.18 1002.35 1002.65 1003.06 1003.54 1004.06 1004.60 1005.14 1005.66 1006.15 1006.61 1007.04 1007.44 1007.81 1008.17 1008.49 1008.79
1014.85 1014.41 1013.94 1013.44 1012.95 1012.46 1011.99 1011.54 1011.12 1010.72 1010.35 1009.98 1009.60 1009.21 1008.79 1008.32 1007.79 1007.20 1006.55 1005.86 1005.15 1004.44 1003.75 1003.13 1002.60 1002.19 1001.91 1001.77 1001.77 1001.91 1002.16 1002.50 1002.91 1003.38 1003.87 1004.38 1004.89 1005.39 1005.89 1006.36 1006.80 1007.22 1007.60 1007.94
1014.39 1013.87 1013.34 1012.82 1012.32 1011.86 1011.44 1011.05 1010.69 1010.36 1010.05 1009.74 1009.42 1009.08 1008.71 1008.28 1007.80 1007.26 1006.67 1006.03 1005.34 1004.65 1003.96 1003.30 1002.71 1002.20 1001.79 1001.50 1001.33 1001.29 1001.38 1001.57 1001.85 1002.22 1002.66 1003.14 1003.66 1004.20 1004.74 1005.27 1005.78 1006.25 1006.69 1007.08
1013.64 1013.07 1012.51 1011.98 1011.50 1011.08 1010.71 1010.39 1010.10 1009.84 1009.59 1009.34 1009.08 1008.79 1008.46 1008.09 1007.67 1007.20 1006.67 1006.10 1005.48 1004.83 1004.16 1003.50 1002.87 1002.29 1001.77 1001.35 1001.03 1000.83 1000.75 1000.79 1000.95 1001.22 1001.58 1002.03 1002.53 1003.08 1003.66 1004.23 1004.79 1005.31 1005.79 1006.23
1012.65 1012.05 1011.48 1010.98 1010.54 1010.17 1009.87 1009.62 1009.41 1009.21 1009.02 1008.82 1008.60 1008.36 1008.07 1007.76 1007.39 1006.99 1006.54 1006.04 1005.50 1004.92 1004.30 1003.67 1003.03 1002.41 1001.83 1001.31 1000.87 1000.53 1000.31 1000.22 1000.26 1000.43 1000.71 1001.10 1001.58 1002.11 1002.69 1003.28 1003.86 1004.42 1004.94 1005.43
Thickness
5818 5802 5790 5796 5801 5801 5795 5786 5782 5789 5803 5795 5788 5788 5792 5797 5796 5792 5791 5790 5789 5790 5794 5793 5792 5792 5789 5787 5784 5783 5781 5780 5778 5775 5772 5770 5769 5769 5769 5769 5768 5766 5765 5763
5800 5795 5808 5812 5809 5805 5797 5787 5786 5794 5804 5797 5788 5788 5797 5800 5799 5799 5796 5794 5793 5792 5793 5793 5793 5792 5790 5788 5786 5784 5783 5782 5780 5778 5775 5773 5771 5770 5769 5769 5768 5766 5765 5763
5796 5804 5817 5812 5805 5799 5794 5789 5790 5791 5797 5797 5790 5782 5792 5801 5805 5804 5804 5801 5799 5798 5795 5795 5794 5793 5792 5790 5789 5788 5785 5784 5782 5780 5777 5775 5772 5770 5768 5767 5767 5767 5766 5764
5802 5812 5813 5808 5804 5802 5788 5805 5802 5795 5781 5770 5780 5758 5783 5794 5797 5801 5804 5804 5803 5803 5802 5799 5797 5795 5794 5794 5793 5791 5788 5786 5783 5781 5778 5775 5770 5767 5768 5768 5767 5767 5766 5765
5799 5810 5809 5804 5809 5810 5802 5812 5803 5793 5779 5767 5771 5761 5774 5791 5791 5800 5806 5809 5809 5808 5806 5803 5802 5800 5799 5798 5795 5792 5790 5787 5785 5783 5780 5776 5773 5771 5770 5769 5767 5766 5766 5765
5805 5817 5817 5815 5820 5819 5812 5800 5788 5776 5766 5751 5765 5761 5767 5783 5797 5806 5812 5814 5814 5813 5811 5808 5807 5804 5801 5799 5796 5793 5790 5787 5786 5784 5781 5778 5774 5772 5769 5767 5766 5765 5764 5764
5793 5805 5817 5822 5809 5810 5804 5777 5752 5747 5738 5743 5766 5764 5773 5803 5812 5816 5817 5818 5819 5817 5813 5809 5807 5804 5802 5800 5798 5795 5792 5789 5787 5785 5783 5780 5777 5774 5771 5768 5766 5765 5763 5763
5773 5775 5804 5815 5809 5798 5794 5782 5752 5738 5734 5744 5762 5762 5789 5815 5821 5825 5825 5823 5822 5819 5816 5813 5811 5809 5806 5804 5801 5798 5794 5791 5789 5787 5784 5782 5779 5776 5773 5771 5769 5766 5765 5764
5769 5775 5806 5816 5818 5807 5789 5778 5779 5753 5748 5744 5753 5769 5795 5817 5818 5820 5821 5820 5819 5819 5818 5816 5814 5812 5810 5807 5805 5802 5798 5794 5791 5788 5786 5783 5780 5777 5775 5773 5770 5768 5766 5765
5784 5777 5796 5808 5812 5806 5799 5781 5763 5749 5735 5735 5751 5762 5775 5799 5808 5813 5814 5816 5818 5819 5818 5817 5815 5813 5812 5811 5808 5805 5801 5796 5793 5790 5787 5785 5781 5779 5776 5773 5769 5767 5766 5765
5787 5773 5781 5791 5789 5787 5785 5776 5761 5747 5748 5735 5736 5759 5800 5803 5810 5811 5815 5817 5819 5819 5819 5817 5815 5814 5812 5810 5807 5804 5800 5797 5793 5791 5788 5785 5782 5779 5776 5772 5769 5766 5764 5762
5778 5764 5758 5775 5793 5799 5793 5780 5766 5755 5746 5741 5740 5761 5812 5811 5813 5814 5815 5817 5819 5820 5819 5817 5815 5812 5810 5808 5805 5802 5800 5797 5794 5791 5788 5784 5781 5778 5775 5772 5768 5766 5763 5761
5774 5757 5744 5752 5766 5781 5781 5778 5771 5759 5745 5735 5739 5766 5808 5809 5810 5813 5814 5815 5815 5816 5815 5814 5812 5809 5808 5806 5803 5801 5798 5795 5793 5789 5785 5782 5778 5776 5773 5772 5769 5766 5763 5760
5778 5752 5748 5742 5753 5767 5772 5774 5770 5762 5745 5741 5751 5771 5794 5801 5804 5808 5810 5811 5811 5811 5811 5809 5807 5806 5805 5803 5802 5799 5796 5794 5790 5786 5782 5778 5775 5773 5771 5770 5767 5764 5762 5759
5769 5750 5755 5759 5768 5771 5773 5774 5771 5768 5762 5756 5766 5772 5789 5799 5803 5807 5808 5807 5806 5806 5807 5806 5805 5803 5802 5800 5798 5796 5793 5790 5787 5782 5778 5775 5773 5771 5769 5766 5764 5761 5759 5757
5752 5745 5750 5752 5761 5765 5765 5770 5771 5771 5769 5768 5773 5776 5796 5800 5802 5802 5803 5803 5802 5803 5804 5804 5803 5800 5798 5797 5795 5792 5789 5786 5783 5778 5774 5773 5771 5768 5765 5763 5760 5758 5756 5754
5735 5737 5732 5730 5746 5753 5745 5763 5767 5769 5773 5772 5769 5781 5793 5793 5795 5796 5798 5799 5800 5801 5802 5800 5799 5798 5796 5794 5793 5789 5786 5782 5777 5773 5771 5769 5767 5764 5762 5760 5756 5753 5752 5749
5728 5723 5715 5717 5730 5721 5746 5771 5772 5769 5772 5777 5780 5784 5787 5790 5793 5796 5797 5796 5796 5797 5797 5796 5795 5794 5793 5791 5788 5786 5782 5777 5773 5770 5768 5766 5763 5760 5757 5754 5752 5749 5747 5745
5726 5719 5706 5701 5707 5719 5744 5762 5764 5760 5761 5773 5774 5778 5782 5785 5786 5786 5793 5794 5794 5794 5794 5793 5791 5789 5787 5785 5783 5780 5776 5772 5769 5766 5764 5762 5759 5755 5752 5749 5747 5745 5742 5740
5713 5714 5703 5695 5701 5703 5734 5759 5767 5759 5747 5768 5770 5770 5772 5774 5764 5773 5787 5788 5789 5789 5788 5786 5785 5782 5779 5777 5776 5772 5768 5766 5764 5763 5761 5758 5755 5752 5748 5745 5742 5740 5737 5735
5700 5697 5694 5692 5697 5710 5739 5752 5757 5733 5740 5761 5764 5765 5765 5764 5768 5775 5780 5780 5781 5781 5781 5780 5777 5774 5773 5771 5768 5764 5762 5761 5761 5759 5756 5753 5750 5747 5744 5740 5737 5734 5731 5729
5691 5687 5685 5683 5689 5702 5736 5740 5735 5736 5749 5754 5757 5759 5759 5762 5766 5768 5770 5771 5771 5771 5771 5771 5768 5766 5765 5764 5761 5758 5756 5757 5755 5752 5749 5746 5744 5742 5740 5734 5731 5728 5725 5722
5685 5690 5688 5691 5698 5714 5725 5730 5736 5738 5740 5745 5748 5751 5753 5753 5754 5756 5758 5760 5761 5762 5761 5762 5759 5757 5757 5756 5754 5751 5751 5750 5747 5744 5741 5739 5737 5735 5733 5729 5725 5722 5719 5717
5684 5687 5686 5690 5700 5710 5717 5723 5728 5733 5735 5740 5743 5744 5746 5745 5746 5746 5747 5749 5750 5751 5752 5751 5750 5749 5748 5747 5746 5745 5744 5742 5739 5735 5733 5731 5730 5728 5725 5722 5720 5716 5713 5711
5677 5680 5679 5683 5693 5701 5709 5714 5718 5723 5728 5731 5734 5736 5736 5736 5737 5738 5738 5738 5739 5740 5740 5741 5740 5739 5739 5738 5737 5737 5735 5733 5730 5728 5726 5723 5721 5719 5717 5715 5713 5711 5710 5707
5670 5673 5674 5678 5688 5688 5696 5705 5711 5713 5716 5719 5721 5723 5726 5727 5726 5727 5727 5728 5728 5728 5729 5729 5729 5729 5729 5729 5728 5728 5727 5725 5722 5719 5717 5715 5712 5710 5708 5706 5705 5704 5703 5701